This is the latest recevied weather packets stored in our database for station/object DC1MAK-13. If no packets are shown the sender has not sent any weather packets the latest 10 day(s).
| Time | Temp. | Humidity | Pressure | Rain* | Wind** | Luminosity | Snow |
|---|---|---|---|---|---|---|---|
| 1787406147 | 21.11° C | 50% | 990.1 hPa | - | - | - | - |
| 1787405841 | 21.67° C | 51% | 990.1 hPa | - | - | - | - |
| 1787405537 | 21.11° C | 52% | 990.1 hPa | - | - | - | - |
| 1787405234 | 20.56° C | 53% | 990.1 hPa | - | - | - | - |
| 1787404931 | 20° C | 54% | 990.2 hPa | - | - | - | - |
| 1787404327 | 20.56° C | 53% | 990.3 hPa | - | - | - | - |
| 1787404020 | 20.56° C | 55% | 990.3 hPa | - | - | - | - |
| 1787403716 | 18.89° C | 57% | 990.4 hPa | - | - | - | - |
| 1787403413 | 18.89° C | 57% | 990.4 hPa | - | - | - | - |
| 1787402807 | 18.89° C | 57% | 990.4 hPa | - | - | - | - |
| 1787402507 | 18.33° C | 56% | 990.4 hPa | - | - | - | - |
| 1787402199 | 18.89° C | 56% | 990.3 hPa | - | - | - | - |
| 1787401896 | 18.89° C | 53% | 990.3 hPa | - | - | - | - |
| 1787401592 | 19.44° C | 56% | 990.2 hPa | - | - | - | - |
| 1787400987 | 19.44° C | 55% | 990.3 hPa | - | - | - | - |
| 1787400687 | 19.44° C | 54% | 990.1 hPa | - | - | - | - |
| 1787400378 | 20° C | 54% | 990.1 hPa | - | - | - | - |
| 1787400075 | 20° C | 52% | 990 hPa | - | - | - | - |
| 1787399772 | 20° C | 52% | 989.9 hPa | - | - | - | - |
| 1787399167 | 20° C | 52% | 989.7 hPa | - | - | - | - |
| 1787398867 | 20° C | 52% | 989.9 hPa | - | - | - | - |
| 1787398558 | 20° C | 52% | 989.8 hPa | - | - | - | - |
| 1787398254 | 19.44° C | 55% | 989.8 hPa | - | - | - | - |
| 1787397951 | 19.44° C | 56% | 989.8 hPa | - | - | - | - |
| 1787397347 | 18.89° C | 59% | 989.7 hPa | - | - | - | - |
* Rain since midnight (hover to see other rain measurements)
** Current wind speed in m/s (hover to see current wind gust speed)